Starlink 4106

operational
NORAD ID: 53145 Int'l Des: 2022-083 Owner: SPXS Country: US Constellation: starlink
LEOCIRCULAR

About Starlink 4106

Description loading...

Live Position

Loading 3D Globe...

Upcoming Passes

Altitude History

Altitude vs Time

uPlot chart will show altitude changes over time

Two-Line Element Set

1 53145U 22083P 25343.08400891 .00000551 00000-0 52680-4 0 9996
2 53145 53.2166 220.8639 0001354 80.4787 279.6358 15.08839435187541
Epoch: Dec 9, 2025 • Age: 11 hours

Current Status

Altitude 542.4 km
Velocity 7.60 km/s
Sub-Earth Point 39.41°N, 22.76°W
Launch Date Jul 17, 2022
Age 3.3 years
Type internet

Technical Details

Classification Payload
Mass 297.00 kg
Dry Mass 275.00 kg
Total Mass 297.00 kg
Length 0.20 m
Diameter 2.80 m
Span 9.00 m
Shape Box + pan
Manufacturer SPXS
Bus Type Starlink
Phase Status In Orbit
Owner/State SPXS/US

Large Constellations

Loading constellations...